Location: Monrovia
(34.7865°N, 86.7139°W)
Time: 00:53:18
(UTC+00:00)

Cosmos 2344 - Pass Details

Date: 14 July 2020
Orbit: 1249 x 2993 km, 63.3° (Epoch: 12 August)

Event Time Altitude Azimuth Distance (km) Brightness Sun altitude
Rises 03:15:21 0° 217° (SW) 4,426 6.3 -22.3°
Reaches altitude 10° 03:18:18 10° 220° (SW) 3,342 5.7 -22.7°
Maximum altitude 03:25:56 68° 303° (WNW) 1,331 3.8 -23.7°
Drops below altitude 10° 03:33:36 10° 27° (NNE) 3,352 6.1 -24.6°
Sets 03:36:35 0° 30° (NNE) 4,440 6.7 -25.0°
